Weather in Egindybulak

Kazakhstan     49°47′10″N   76°23′08″E
temp.,
°C
wind,
m/s
gust,
m/s
humid.,
%
clouds,
%
prec.,
mm/h
press.,
hPa
HPBL,
m
8 may, sat
sat800:00+10nne33445 0.0 102127
03:00+8ne22515 0.0 102110
06:00+7ene115566 0.0 102210
09:00+14e3437100 0.0 1021853
12:00+17e3425100 0.0 10201416
15:00+19ese3320100 0.0 10191786
18:00+19sse131975 0.0 10181907
21:00+16ese482587 0.0 1018229
9 may, sun
sun900:00+15se41028100 0.0 1017336
03:00+13sse373433 0.0 1016141
06:00+11sse4539100 0.0 101688
09:00+18sse462894 0.0 1014388
12:00+22sse552685 0.0 10121739
15:00+24sse4425100 0.0 10102740
18:00+23sse4527100 0.0 10091112
21:00+19sw5738100 0.0 1010325
10 may, mon
mon1000:00+15ese2371100 0.1 1009166
03:00+16ese253595 0.1 1007177
06:00+13sw49712 1.1 1007403
09:00+15wsw5856100 1.1 10081526
12:00+14w7961100 2.3 10081099
15:00+14nw466795 1.3 1008618
18:00+15nnw5463100 1.4 1008930
21:00+10nne7974100 0.1 1012511
11 may, tue
tue1100:00+8nne4683100 3.4 1013368
03:00+8n4762100 0.2 1013510
06:00+8nnw3759100 0.2 1015423
09:00+9n4651100 0.0 1016732
12:00+13n663992 0.0 10161993
15:00+13n8836100 0.0 10162165
18:00+12nnw883890 0.0 10181930
21:00+9nnw69505 0.0 1021486
12 may, wed
wed1200:00+7nw22605 0.0 102136
03:00+5wnw226698 0.0 102122
06:00+6wsw2368100 0.1 102275
09:00+10nnw5747100 0.0 10211716
12:00+13nw573797 0.1 10192186
15:00+15nnw673064 0.0 10172607
18:00+15nnw6630100 0.0 10172372
21:00+11nne3339100 0.0 101732